DW6345 Murcia ES current weather conditions

sailwx.info

Wind from 090 at 3 knots gusting 6

Air temperature 15.6° C
Dewpoint 9.9° C

Last reported at 2014-Dec-20 16:44 UTC.
Time now 2014-Dec-20 17:19 UTC

Location: N 37°60' W 001°06'.
View on Google Maps.

See reports from other nearby stations

  
Tides and Currents Weather Stations Pressure Air Temp Water Temp Dewpoint Dewpoint Depression Visibility Wind Speed Wind Dir Waves Ship Positions
date/time (UTC)wind fromknots sea level pressurealtimeterstation pressurevisibilityair tempwater tempwave heightnotes
2014-Dec-20 16:44 090 3 gusting 6 15.6
2014-Dec-20 16:34 090 4 gusting 7 15.6
2014-Dec-20 16:24 096 4 gusting 7 16.1
2014-Dec-20 16:14 090 5 gusting 8 16.7
2014-Dec-20 16:04 090 5 gusting 8 17.2
2014-Dec-20 15:54 092 4 gusting 8 17.8
2014-Dec-20 15:44 093 3 gusting 8 17.8
2014-Dec-20 15:34 090 4 gusting 8 18.9
2014-Dec-20 15:24 090 2 gusting 6 18.9
2014-Dec-20 15:14 090 2 gusting 6 18.9
2014-Dec-20 15:04 045 2 gusting 6 18.9
2014-Dec-20 14:54 135 0 gusting 5 19.4
2014-Dec-20 14:44 090 1 gusting 5 19.4
2014-Dec-20 14:34 090 2 gusting 5 20.0
2014-Dec-20 14:24 135 0 gusting 2 20.6
2014-Dec-20 14:14 090 20.0
2014-Dec-20 14:04 090 2 gusting 2 20.0
2014-Dec-20 13:54 051 0 gusting 2 20.0
2014-Dec-20 13:44 002 0 gusting 2 20.0
2014-Dec-20 13:34 324 0 gusting 2 20.6
2014-Dec-20 13:24 315 1 gusting 2 19.4
2014-Dec-20 13:14 277 0 gusting 2 19.4
2014-Dec-20 13:04 090 0 gusting 2 19.4
2014-Dec-20 12:54 264 0 gusting 2 18.9
2014-Dec-20 12:44 222 0 gusting 2 18.3
2014-Dec-20 12:34 270 1 gusting 4 18.3
2014-Dec-20 12:24 180 0 gusting 5 17.8
2014-Dec-20 12:14 315 2 gusting 5 17.8
2014-Dec-20 12:04 225 17.8
2014-Dec-20 11:54 225 0 gusting 2 17.8
2014-Dec-20 11:44 180 0 gusting 4 17.2
2014-Dec-20 11:34 043 0 gusting 4 16.7
2014-Dec-20 11:24 051 0 gusting 2 16.7
2014-Dec-20 11:14 270 0 gusting 2 16.1
2014-Dec-20 11:04 001 0 gusting 2 15.6
2014-Dec-20 10:54 135 0 gusting 5 15.0
2014-Dec-20 10:44 225 1 gusting 4 15.0
2014-Dec-20 10:34 315 1 gusting 4 14.4
2014-Dec-20 10:24 270 1 gusting 4 14.4
2014-Dec-20 10:14 008 1 gusting 2 14.4
2014-Dec-20 10:04 011 2 gusting 2 13.9
2014-Dec-20 09:54 180 0 gusting 4 13.3
2014-Dec-20 09:44 228 2 gusting 5 13.9
2014-Dec-20 09:34 180 0 gusting 4 13.3
2014-Dec-20 09:24 202 0 gusting 4 12.8
2014-Dec-20 09:14 270 1 gusting 4 12.2
2014-Dec-20 09:04 270 0 gusting 2 11.7
2014-Dec-20 08:54 265 1 gusting 2 11.1
2014-Dec-20 08:44 007 0 gusting 2 10.6
2014-Dec-20 08:34 270 1 gusting 5 10.0
2014-Dec-20 08:24 269 2 gusting 2 9.4
2014-Dec-20 08:14 270 1 gusting 2 9.4
2014-Dec-20 08:04 180 1 gusting 2 9.4
2014-Dec-20 07:54 270 1 gusting 4 10.0
2014-Dec-20 07:44 225 1 gusting 4 10.0
2014-Dec-20 07:34 270 1 gusting 5 10.0
2014-Dec-20 07:24 270 2 gusting 5 9.4
2014-Dec-20 07:14 270 0 gusting 2 9.4
2014-Dec-20 07:04 315 0 gusting 2 8.9
2014-Dec-20 06:54 315 0 gusting 1 8.9
2014-Dec-20 06:44 315 8.9
2014-Dec-20 06:34 180 0 gusting 0 8.9
2014-Dec-20 06:24 176 8.9
2014-Dec-20 06:14 048 0 gusting 2 9.4
2014-Dec-20 06:04 9.4
2014-Dec-20 05:54 228 0 gusting 1 9.4
2014-Dec-20 05:44 180 0 gusting 1 9.4
2014-Dec-20 05:34 180 0 gusting 1 9.4
2014-Dec-20 05:24 132 0 gusting 2 9.4
2014-Dec-20 05:14 090 0 gusting 2 10.0
2014-Dec-20 05:04 045 0 gusting 2 11.1
2014-Dec-20 04:54 315 0 gusting 4 11.1
2014-Dec-20 04:44 312 1 gusting 5 11.1
2014-Dec-20 04:34 315 2 gusting 4 11.1
2014-Dec-20 04:24 315 1 gusting 2 11.1
2014-Dec-20 04:14 315 0 gusting 2 11.7
2014-Dec-20 04:04 270 1 gusting 2 11.7
2014-Dec-20 03:54 273 0 gusting 2 11.7
2014-Dec-20 03:44 270 1 gusting 5 11.7
2014-Dec-20 03:34 315 2 gusting 5 11.7
2014-Dec-20 03:24 315 0 gusting 5 11.7
2014-Dec-20 03:14 310 2 gusting 5 11.7
2014-Dec-20 03:04 315 2 gusting 5 11.1
2014-Dec-20 02:54 315 2 gusting 5 11.1
2014-Dec-20 02:44 315 2 gusting 5 10.6
2014-Dec-20 02:34 315 1 gusting 2 10.0
2014-Dec-20 02:24 008 0 gusting 1 10.0
2014-Dec-20 02:14 180 0 gusting 1 10.0
2014-Dec-20 02:04 180 10.6
2014-Dec-20 01:54 177 10.6
2014-Dec-20 01:44 180 10.6
2014-Dec-20 01:34 310 1 gusting 4 10.6
2014-Dec-20 01:24 315 0 gusting 2 10.6
2014-Dec-20 01:14 041 10.6
2014-Dec-20 01:04 180 10.6
2014-Dec-20 00:54 090 11.1
2014-Dec-20 00:44 090 0 gusting 1 11.1
2014-Dec-20 00:34 315 0 gusting 1 11.7
2014-Dec-20 00:24 308 0 gusting 2 11.7
2014-Dec-20 00:14 273 12.2
2014-Dec-20 00:04 270 1 gusting 5 12.2
2014-Dec-19 23:54 273 2 gusting 5 12.2
2014-Dec-19 23:44 315 0 gusting 2 11.7
2014-Dec-19 23:34 272 0 gusting 2 11.7
2014-Dec-19 23:24 139 12.2
2014-Dec-19 23:14 319 12.8
2014-Dec-19 23:04 045 0 gusting 5 12.8
2014-Dec-19 22:54 270 0 gusting 4 12.8
2014-Dec-19 22:44 270 0 gusting 2 12.8
2014-Dec-19 22:34 270 1 gusting 6 12.8
2014-Dec-19 22:24 270 3 gusting 6 12.8
2014-Dec-19 22:14 267 2 gusting 5 12.8
2014-Dec-19 22:04 315 2 gusting 6 13.3
2014-Dec-19 21:54 228 5 gusting 6 13.3
2014-Dec-19 21:44 270 3 gusting 5 13.3
2014-Dec-19 21:34 270 4 gusting 6 13.9
2014-Dec-19 21:24 270 4 gusting 7 13.9
2014-Dec-19 21:14 270 2 gusting 6 13.9
2014-Dec-19 21:04 270 4 gusting 6 13.9
2014-Dec-19 20:54 228 4 gusting 6 14.4
2014-Dec-19 20:44 267 4 gusting 6 14.4
2014-Dec-19 20:34 275 2 gusting 5 14.4
2014-Dec-19 20:24 270 2 gusting 6 14.4
2014-Dec-19 20:14 272 4 gusting 6 15.0
2014-Dec-19 20:04 270 4 gusting 7 15.6
2014-Dec-19 19:54 270 4 gusting 8 15.6
2014-Dec-19 19:44 270 4 gusting 8 15.6
2014-Dec-19 19:34 270 4 gusting 8 15.6
2014-Dec-19 19:24 270 2 gusting 6 15.6
2014-Dec-19 19:14 272 4 gusting 6 15.6
2014-Dec-19 19:04 270 5 gusting 8 15.6
2014-Dec-19 18:54 270 4 gusting 7 16.1
2014-Dec-19 18:44 311 4 gusting 8 16.1
2014-Dec-19 18:34 270 4 gusting 8 16.1
2014-Dec-19 18:24 225 2 gusting 6 16.1
2014-Dec-19 18:14 270 2 gusting 5 16.7
2014-Dec-19 18:04 270 1 gusting 4 17.2
2014-Dec-19 17:54 270 1 gusting 2 17.2
2014-Dec-19 17:44 321 1 gusting 2 17.2
2014-Dec-19 17:34 270 0 gusting 1 17.8
2014-Dec-19 17:24 180 1 gusting 2 17.8
2014-Dec-19 17:04 315 19.4
2014-Dec-19 16:54 272 0 gusting 2 19.4
2014-Dec-19 16:44 270 0 gusting 4 20.0
2014-Dec-19 16:34 270 1 gusting 4 20.6
2014-Dec-19 16:24 273 0 gusting 2 20.6
2014-Dec-19 16:14 270 1 gusting 2 20.6
2014-Dec-19 16:04 315 1 gusting 2 20.6
2014-Dec-19 15:54 272 1 gusting 5 21.1
2014-Dec-19 15:44 270 2 gusting 5 21.1
2014-Dec-19 15:34 270 2 gusting 6 20.6
2014-Dec-19 15:24 180 2 gusting 6 20.6
2014-Dec-19 15:14 229 5 gusting 7 20.6
2014-Dec-19 15:04 248 5 gusting 6 20.6
2014-Dec-19 14:54 225 4 gusting 6 20.6
2014-Dec-19 14:44 315 5 gusting 6 21.1
2014-Dec-19 14:34 203 2 gusting 5 21.1
2014-Dec-19 14:24 227 2 gusting 5 20.6
2014-Dec-19 14:14 312 1 gusting 6 20.6
2014-Dec-19 14:04 228 2 gusting 5 20.6
2014-Dec-19 13:54 270 2 gusting 5 20.0
2014-Dec-19 13:44 267 3 gusting 6 19.4
2014-Dec-19 13:34 270 3 gusting 6 19.4
2014-Dec-19 13:25 229 4 gusting 6 19.4
2014-Dec-19 13:14 184 2 gusting 6 19.4
2014-Dec-19 13:05 315 0 gusting 5 18.9
2014-Dec-19 12:54 270 1 gusting 4 18.9
2014-Dec-19 12:44 225 2 gusting 5 18.3
2014-Dec-19 12:34 313 2 gusting 5 17.8
2014-Dec-19 12:24 315 0 gusting 5 17.8
2014-Dec-19 12:14 311 2 gusting 5 17.2
2014-Dec-19 12:04 17.2
2014-Dec-19 11:54 009 1 gusting 4 16.7
2014-Dec-19 11:44 225 2 gusting 5 16.7
2014-Dec-19 11:34 270 2 gusting 6 16.1
2014-Dec-19 11:24 226 2 gusting 6 16.1
2014-Dec-19 11:14 267 2 gusting 6 15.6
2014-Dec-19 11:04 270 5 gusting 6 15.0
2014-Dec-19 10:55 008 2 gusting 6 15.0
2014-Dec-19 10:44 270 3 gusting 6 15.0
2014-Dec-19 10:34 267 2 gusting 5 14.4
2014-Dec-19 10:25 270 2 gusting 5 14.4
2014-Dec-19 10:14 232 2 gusting 5 13.9
2014-Dec-19 10:04 292 2 gusting 5 13.3
2014-Dec-19 09:55 270 2 gusting 5 13.3
2014-Dec-19 09:45 315 1 gusting 4 13.3
2014-Dec-19 09:34 268 1 gusting 5 12.8
2014-Dec-19 09:24 270 2 gusting 5 12.2
2014-Dec-19 09:14 270 0 gusting 5 12.2
2014-Dec-19 09:04 270 2 gusting 4 11.7
2014-Dec-19 08:55 266 2 gusting 4 11.7
2014-Dec-19 08:45 184 11.1
2014-Dec-19 08:35 312 0 gusting 2 10.6
2014-Dec-19 08:25 270 1 gusting 2 10.0
2014-Dec-19 08:15 270 1 gusting 5 9.4
2014-Dec-19 08:05 225 2 gusting 4 9.4
2014-Dec-19 07:54 248 2 gusting 5 8.9
2014-Dec-19 07:45 270 2 gusting 6 8.3
2014-Dec-19 07:35 249 2 gusting 6 8.3
2014-Dec-19 07:24 270 3 gusting 6 8.3
2014-Dec-19 07:15 248 2 gusting 5 8.3
2014-Dec-19 07:05 8.3
2014-Dec-19 06:55 8.3
2014-Dec-19 06:45 270 2 gusting 5 8.3
2014-Dec-19 06:35 292 2 gusting 5 8.3
2014-Dec-19 06:25 011 2 gusting 4 8.3
2014-Dec-19 06:15 006 2 gusting 4 8.9
2014-Dec-19 06:05 270 0 gusting 2 8.3
2014-Dec-19 05:55 267 0 gusting 0 8.3
2014-Dec-19 05:45 352 0 gusting 0 8.3
2014-Dec-19 05:35 228 8.3
2014-Dec-19 05:25 179 0 gusting 2 8.3
2014-Dec-19 05:15 225 1 gusting 4 8.3
2014-Dec-19 05:05 248 2 gusting 5 8.9
2014-Dec-19 04:55 230 3 gusting 5 9.4
2014-Dec-19 04:45 225 1 gusting 5 10.0
2014-Dec-19 04:35 270 1 gusting 4 10.0
2014-Dec-19 04:25 270 1 gusting 5 10.6
2014-Dec-19 04:15 275 2 gusting 5 10.0
2014-Dec-19 04:05 270 2 gusting 6 10.0
2014-Dec-19 03:55 270 2 gusting 6 10.0
2014-Dec-19 03:45 274 4 gusting 6 9.4
2014-Dec-19 03:35 270 1 gusting 6 9.4
2014-Dec-19 03:25 270 3 gusting 6 9.4
2014-Dec-19 03:15 274 2 gusting 6 8.9
2014-Dec-19 03:05 270 2 gusting 6 8.9
2014-Dec-19 02:55 010 3 gusting 6 9.4
2014-Dec-19 02:45 001 3 gusting 5 9.4
2014-Dec-19 02:35 225 1 gusting 4 9.4
2014-Dec-19 02:25 231 1 gusting 5 9.4
2014-Dec-19 02:15 009 2 gusting 5 9.4
2014-Dec-19 02:05 248 1 gusting 4 10.0
2014-Dec-19 01:55 024 0 gusting 4 10.0
2014-Dec-19 01:45 10.0
2014-Dec-19 01:35 180 10.0
2014-Dec-19 01:25 008 0 gusting 2 10.0
2014-Dec-19 01:15 270 1 gusting 2 10.0
2014-Dec-19 01:05 225 0 gusting 2 10.6
2014-Dec-19 00:55 180 0 gusting 2 11.1
2014-Dec-19 00:45 180 0 gusting 2 11.1
2014-Dec-19 00:35 270 0 gusting 5 11.7
2014-Dec-19 00:25 315 2 gusting 5 11.7
2014-Dec-19 00:15 313 2 gusting 5 11.7
2014-Dec-19 00:05 270 1 gusting 5 11.7
2014-Dec-18 23:55 270 2 gusting 5 11.1
2014-Dec-18 23:45 270 1 gusting 4 11.1
2014-Dec-18 23:35 270 0 gusting 2 11.1
2014-Dec-18 23:25 270 1 gusting 2 11.1
2014-Dec-18 23:15 270 1 gusting 4 11.1
2014-Dec-18 23:05 11.1
2014-Dec-18 22:55 225 2 gusting 5 11.7
2014-Dec-18 22:45 225 2 gusting 5 11.7
2014-Dec-18 22:35 270 0 gusting 2 11.7
2014-Dec-18 22:25 180 11.7
2014-Dec-18 22:15 008 11.7
2014-Dec-18 22:05 180 11.7
2014-Dec-18 21:55 270 0 gusting 1 11.7
2014-Dec-18 21:45 009 11.7
2014-Dec-18 21:35 315 11.7
2014-Dec-18 21:25 045 11.7
2014-Dec-18 21:15 048 0 gusting 1 12.2
2014-Dec-18 21:05 090 12.2
2014-Dec-18 20:55 090 0 gusting 1 12.8
2014-Dec-18 20:45 090 12.8
2014-Dec-18 20:35 180 13.3
2014-Dec-18 20:25 090 0 gusting 1 13.3
2014-Dec-18 20:15 315 0 gusting 5 13.9
2014-Dec-18 20:05 270 2 gusting 5 13.9
2014-Dec-18 19:55 270 2 gusting 5 14.4
2014-Dec-18 19:45 248 2 gusting 6 14.4
2014-Dec-18 19:35 270 2 gusting 5 14.4
2014-Dec-18 19:25 270 3 gusting 5 15.0
2014-Dec-18 19:15 007 1 gusting 5 15.0
2014-Dec-18 19:05 225 0 gusting 2 14.4
2014-Dec-18 18:55 312 1 gusting 2 14.4
2014-Dec-18 18:45 273 0 gusting 2 15.0
2014-Dec-18 18:35 270 0 gusting 2 15.0
2014-Dec-18 18:25 315 0 gusting 1 15.0
2014-Dec-18 18:15 180 15.0
2014-Dec-18 18:05 202 0 gusting 4 15.6
2014-Dec-18 17:55 180 1 gusting 4 15.6
2014-Dec-18 17:45 180 1 gusting 4 16.1
2014-Dec-18 17:35 180 1 gusting 5 16.1
2014-Dec-18 17:25 180 2 gusting 5 16.7
2014-Dec-18 17:15 180 2 gusting 5 16.7
2014-Dec-18 17:05 180 2 gusting 4 17.8